Location: Cedarpines Park
(34.2500°N, 117.3259°W)
Time: 18:02:32
(UTC+00:00)

Daily predictions for brighter satellites

Satellite Brightness Start Highest point End
(mag) Time Altitude Azimuth Time Altitude Azimuth Time Altitude Azimuth
ALOS 4.1 12:00:11 10° NE 12:04:21 31° E 12:08:28 10° SSE
Cosmos 1263 4.0 12:07:07 10° N 12:10:12 86° W 12:13:10 10° S
Cosmos 1464 Rocket 4.1 12:04:21 10° S 12:10:42 79° W 12:17:07 10° N
Cosmos 1900 4.3 12:07:24 10° SSW 12:12:15 77° WNW 12:17:12 10° NNE
Cosmos 2034 Rocket 4.2 12:09:29 10° S 12:15:38 79° E 12:21:48 10° N
